Location: Unspecified
(49.9820°N, 20.4363°E)
Time: 19:34:23
(UTC+01:00)

ISS - Pass Details

Date: 12 November 2018
Orbit: 401 x 408 km, 51.6° (Epoch: 10 December)

Event Time Altitude Azimuth Distance (km) Brightness Sun altitude
Exits shadow 05:47:54 11° 257° (WSW) 1,434 -1.6 -9.5°
Maximum altitude 05:49:46 15° 221° (SW) 1,192 -1.7 -9.2°
Drops below altitude 10° 05:51:44 10° 184° (S) 1,462 -0.8 -8.9°
Sets 05:54:26 0° 160° (SSE) 2,319 0.6 -8.5°
